Meteo Giornale » Osservazioni meteo Italia » S Maria Di Leuca

ore: 23:55 - Osservazioni Meteo S Maria Di Leuca
Lat. 39° 49' N Lon. 18° 21' E Alt. 104 metri s.l.m.

sereno Europe/Rome

17 °C

Sereno

Temp. 24 Ore

16 °C

22 °C

Nord-Ovest

16.7 Km/h

Dew point 11 °C

Umidità 67 %

Visibilità  10 Km

Il sole sorge alle ore 06:32

Il sole tramonta alle ore 18:46

Data e Ora Cielo e Fenomeni T °C DP °C Um. % Pres. hPa Vis. km Vento km/h
Ieri h: 23:55 sereno Sereno 17 11 67 1018 10 NO 16.7
Ieri h: 22:55 sereno Sereno 17 11 67 1018 10 NO 14.8
Ieri h: 21:55 sereno Sereno 18 8 51 1018 10 N/NO 13
Ieri h: 20:55 poco_nuvoloso Poco Nuvoloso 18 10 59 1017 10 N 14.8
Ieri h: 19:55 poco_nuvoloso Poco Nuvoloso 19 10 55 1017 10 N 14.8
Ieri h: 18:55 poco_nuvoloso Poco Nuvoloso 20 9 49 1016 10 N 18.5
Ieri h: 17:55 poco_nuvoloso Poco Nuvoloso 21 9 46 1016 10 N 22.2
Ieri h: 16:55 nuvoloso Nuvoloso 21 8 43 1016 10 N 18.5
Ieri h: 15:55 molto_nuvoloso Molto Nuvoloso 21 10 49 1016 10 N/NO 18.5
Ieri h: 14:55 molto_nuvoloso Molto Nuvoloso 22 10 46 1016 10 N/NO 16.7
Ieri h: 13:55 molto_nuvoloso Molto Nuvoloso 22 9 43 1016 10 N/NO 18.5
Ieri h: 12:55 molto_nuvoloso Molto Nuvoloso 21 11 52 1016 10 N/NO 18.5
Ieri h: 11:55 nuvoloso Nuvoloso 20 12 59 1016 10 NO 18.5
Ieri h: 10:55 nuvoloso Nuvoloso 19 11 59 1016 10 NO 18.5
Ieri h: 09:55 poco_nuvoloso Poco Nuvoloso 18 12 67 1015 10 NO 20.3
Ieri h: 08:55 sereno Sereno 17 13 77 1015 10 NO 18.5
Ieri h: 07:55 sereno Sereno 16 13 82 1015 10 NO 18.5
Ieri h: 06:55 poco_nuvoloso Poco Nuvoloso 16 13 82 1015 10 NO 16.7
Ieri h: 05:55 sereno Sereno 16 13 82 1015 10 NO 16.7
Ieri h: 04:55 sereno Sereno 16 13 82 1015 10 NO 13
Ieri h: 03:55 sereno Sereno 17 14 82 1015 10 N/NO 18.5
Ieri h: 02:55 poco_nuvoloso Poco Nuvoloso 17 14 82 1015 10 NO 11.1
Ieri h: 01:55 poco_nuvoloso Poco Nuvoloso 17 14 82 1015 10 NO 13